sat.trackr.live / text

‹ back to catalog

PRAETORIAN SDA_606

NORAD 65569 · 2025-203E

PAYLOAD ACTIVE UNKNOWN

§ Identity

Operator
Country
US
Launch date
2025-09-10
Launch site
AFWTR
Launch vehicle
Mass (kg)
RCS (m²)

Purposes: military

External: N2YO · Heavens-Above · Gunter

§ Orbital elements

Epoch: 2026-05-25T02:11:24.794016Z

Period
104.09 min
Inclination
81.3071°
Eccentricity
0.0004830
Mean motion
13.83404149 rev/d
Perigee alt
948.3 km
Apogee alt
955.4 km
Semi-major
7,330.0 km
B*
6.0396e-5
RAAN
32.3374°
Arg perigee
252.0960°
Mean anomaly
107.9670°
Rev number
3,549

§ Raw data

PRAETORIAN SDA_6061 65569U 25203E   26145.09125919  .00000078  00000+0  60396-4 0  99992 65569  81.3071  32.3374 0004830 252.0960 107.9670 13.83404149 35492

JSON: /api/v1/satellites/65569 · /tle

For live sub-satellite position, see the globe view (requires WebGL).

§ Visibility from observer

Set your observer location to see the next 7 days of passes ≥ 10°. The values pass through the URL so the page stays shareable.

No JS? Fill the form by hand. The geolocation button needs JavaScript.